User: anonymous   Login
Location: Unspecified
(0.0000°N, 0.0000°E)
Time: 10:36:47
(UTC+00:00)
Language:

Meteor 3-5 - Orbit

View from above orbital plane
View from above orbital plane
View from above satellite
View from above satellite

Ground track
Ground track

The orbit data is extracted from the following two-line orbital elements,

1 21655U 91056A   18173.94677131 -.00000003 +00000-0 -40030-4 0  9994
2 21655 082.5567 040.0478 0012560 226.0546 133.9541 13.17085299290828
Epoch (UTC): 22 June 2018 22:43:21
Eccentricity: 0.0012560
inclination: 82.5567°
perigee height: 1186 km
apogee height: 1205 km
right ascension of ascending node: 40.0478°
argument of perigee: 226.0546°
revolutions per day: 13.17085299
mean anomaly at epoch: 133.9541°
orbit number at epoch: 29082

The dashed part of the orbit path shows where the satellite is in the earth's shadow,  

DLR